Location: Unspecified
(0.0000°N, 0.0000°E)
Time: 22:27:49
(UTC+00:00)

Shinsei - Pass Details

Date: 09 December 2023
Orbit: 869 x 1860 km, 32.1° (Epoch: 01 March)

Event Time Altitude Azimuth Distance (km) Brightness Sun altitude
Rises 23:23:22 0° 213° (SSW) 5,140 13.6 -66.1°
Reaches altitude 10° 23:29:12 10° 191° (SSW) 4,010 12.9 -66.4°
Enters shadow 23:29:42 11° 189° (S) 3,932 12.8 -66.5°
